www.pogodaiklimat.ru

Погода и климат >> Архив погоды >> Россия >> Дагестан >> Касумкент


ПОГОДА в Касумкенте

  • Прогноз погоды в Касумкенте
  • Монитор погоды в Касумкенте

АРХИВ ПОГОДЫ в Касумкенте

Время (UTC), дата Ветер
(напр.,м/с)
 
Видим.   Явления Облачность Т
(С)
Тd
(С)
f
(%)
Тe
(С)
Тes
(С)
Комфортность P
(гПа)
Po
(гПа)
Тmin
(С)
Tmax
(С)
R
(мм)
R24
(мм)
S
(см)
12 11.06 В 1 50 км ясно +31.8 +12.1 30 +32 +46 жарко 1007.4 955.5
15 11.06 ЮЗ 1 50 км ясно +26.4 +13.7 46 +29 +30 жарко 1008.5 955.7 +33.2
18 11.06 СЗ 1 10 км ясно +21.7 +15.1 66 +25 +25 комфорт 1009.0 955.4
21 11.06 З 1 10 км ясно +19.6 +14.4 72 +22 +22 комфорт 1008.9 954.9
00 12.06 штиль 0 10 км 10/10 600 м
[Cu hum]
+18.8 +13.7 72 +20 +20 1008.1 954.0
03 12.06 З 1 20 км 10/10 600 м
[Cu hum]
+18.8 +14.2 75 +21 +21 комфорт 1008.9 954.8 +17.5
06 12.06 СВ 2 20 км 6/4 600 м
[Sc Ac trans Ci fib]
+23.3 +14.5 58 +27 +34 душно 1009.4 956.1
09 12.06 С 2 50 км ясно +29.8 +12.3 34 +31 +51 опасность
солнечного
удара
1008.6 956.3
12 12.06 В 2 50 км ясно +29.3 +14.0 39 +31 +43 жарко 1007.5 955.2
15 12.06 СВ 2 20 км 10/10 600 м
[Sc]
+25.0 +15.2 55 +28 +28 жарко 1008.5 955.5 +30.2
18 12.06 З 1 10 км 10/10 600 м
[Cb calv]
+22.3 +14.5 61 +26 +26 жарко 1012.1 958.4
21 12.06 ЮЗ 2 10 км {дождь} 10/10 600 м
[Cb calv]
+17.6 +14.3 81 +18 +18 1010.8 956.4
00 13.06 З 2 10 км 10/10 600 м
[Cb calv]
+16.7 +13.1 79 +17 +17 1010.4 955.8
03 13.06 З 1 20 км 8/3 600 м
[Cb calv Ac cuf Ci fib]
+18.9 +14.6 76 +21 +22 комфорт 1009.5 955.4 +15.9 3
06 13.06 С 1 20 км 10/0
[Ac trans]
+26.0 +16.6 56 +30 +36 душно 1008.1 955.3
09 13.06 В 2 50 км ясно +31.9 +4.0 17 +29 +49 жарко 1006.4 954.5
12 13.06 СВ 2 50 км ясно +29.5 +6.9 24 +28 +40 жарко 1007.4 955.1
15 13.06 З 1 20 км 10/10 600 м
[Cu hum]
+23.2 +13.3 54 +26 +26 жарко 1009.6 956.2 +32.4
18 13.06 З 1 10 км 10/10 600 м
[Cb calv]
+20.8 +11.8 56 +24 +24 комфорт 1010.5 956.6
21 13.06 З 2 10 км ясно +19.6 +10.5 56 +21 +21 комфорт 1011.0 956.8
00 14.06 З 2 10 км 10/10 600 м
[Cb calv]
+21.3 +10.0 48 +23 +23 комфорт 1011.7 957.8
03 14.06 З 2 н/о н/о +21.1 +11.0 52 +23 +23 комфорт 1012.5 958.5 +19.5
06 14.06 В 2 20 км 10/10 600 м
[Cb calv]
+30.3 +10.7 30 +30 +30 жарко 1011.3 959.0
09 14.06 СВ 3 50 км ясно +31.9 +7.8 22 +31 +47 жарко 1011.6 959.5
12 14.06 СВ 3 50 км ясно +26.5 +15.5 51 +30 +39 душно 1013.0 960.0
15 14.06 В 1 50 км ясно +22.4 +15.8 66 +26 +28 жарко 1014.9 961.1 +32.5
18 14.06 З 1 10 км ясно +18.9 +15.9 83 +21 +21 комфорт 1015.9 961.5
21 14.06 З 1 10 км ясно +16.9 +14.1 84 +18 +18 1016.2 961.3
00 15.06 З 2 10 км ясно +16.0 +12.4 79 +16 +16 1015.7 960.7
03 15.06 З 2 50 км ясно +17.9 +11.7 67 +18 +20 1015.1 960.4 +14.4
06 15.06 СВ 1 50 км ясно +26.2 +12.7 43 +28 +44 жарко 1013.7 960.6
09 15.06 СВ 2 50 км ясно +28.4 +10.2 32 +29 +49 жарко 1012.2 959.5
12 15.06 В 3 н/о н/о +28.0 +12.2 38 +29 +39 жарко 1011.3 958.6
15 15.06 С 3 20 км 4/3 600 м
[Cb calv Ac trans Ci fib]
+23.6 +12.4 49 +25 +26 комфорт 1012.0 958.5 +29.3
18 15.06 З 2 10 км ясно +17.6 +12.6 72 +18 +18 1012.9 958.3
21 15.06 З 1 10 км ясно +16.5 +12.4 77 +17 +17 1012.3 957.5
00 16.06 З 1 10 км ясно +15.1 +11.9 81 +16 +16 1012.1 957.1
03 16.06 З 1 50 км ясно +18.8 +11.9 64 +21 +23 комфорт 1010.9 956.6 +15.0
06 16.06 СВ 2 50 км ясно +26.0 +12.4 43 +28 +41 жарко 1008.9 956.0
09 16.06 В 1 50 км ясно +29.6 +9.4 28 +29 +53 опасность
солнечного
удара
1007.0 954.8
12 16.06 С 3
{10}
20 км 6/4 600 м
[Sc Ac As Ci fib]
+27.1 +10.2 35 +28 +33 жарко 1007.3 954.6
15 16.06 СЗ 1 20 км 10/10 600 м
[Sc]
+22.5 +13.5 57 +26 +26 жарко 1009.6 956.1 +32.6
18 16.06 СЗ 2 10 км ясно +22.4 +12.3 53 +25 +25 комфорт 1008.5 955.0
21 16.06 З 2 10 км ясно +19.3 +10.6 57 +21 +21 комфорт 1009.4 955.2
00 17.06 З 1 10 км ясно +18.3 +9.3 56 +20 +20 1008.3 954.0
03 17.06 З 2 20 км 8/8 600 м
[Cu med, cong]
+21.5 +10.4 49 +23 +24 комфорт 1007.9 954.2 +18.0
06 17.06 СВ 1 50 км ясно +32.1 +12.0 29 +32 +48 жарко 1006.3 954.5
09 17.06 В 3 50 км ясно +31.3 +12.2 31 +32 +49 жарко 1006.5 954.6
12 17.06 СЗ 1 20 км 10/10 600 м
[Cu hum]
+24.0 +11.0 44 +25 +25 комфорт 1009.6 956.2
15 17.06 З 1 20 км 10/0
[Ac trans]
+23.9 +15.9 61 +27 +28 жарко 1008.2 955.1 +33.0
18 17.06 З 2 4000 м слаб. дождь 10/10 300 м
[Sc diur, vesp]
+21.5 +15.3 68 +25 +25 комфорт 1010.4 956.7
21 17.06 З 2 10 км {дождь} 10/10 600 м
[Cu hum]
+20.9 +11.9 56 +24 +24 комфорт 1010.2 956.3
00 18.06 З 1 10 км {дождь} 10/10 600 м
[Cu hum]
+17.9 +11.4 66 +19 +19 1010.8 956.3
03 18.06 З 2 20 км 10/10 600 м
[Cu hum]
+20.7 +11.5 56 +23 +23 комфорт 1010.7 956.7 +17.5 0.4
06 18.06 СВ 2 50 км 3/0
[Ci sp]
+29.7 +10.5 30 +30 +42 жарко 1008.8 956.5
09 18.06 С 1 20 км 8/3 600 м
[Cu med, cong Ac As Ci sp]
+32.1 +9.0 24 +31 +42 жарко 1008.0 956.1

 

Местоположение метеостанции Касумкент (Дагестан, Россия): широта 41.67 долгота 48.15 высота над уровнем моря 477 м.

В архиве по умолчанию представлена погода в Касумкенте за последнюю неделю. Архивные данные за месяц целиком и за предыдущие месяцы, начиная с января 2011 года, Вы можете получить, выбрав интересующий диапазон дат из раскрывающегося списка и нажав кнопку "Ввод!".


*Определитесь, кто Вы:
робот инопланетянин человек

Внимание! Время в таблицах - всемирное. Для получения местного времени необходимо прибавить поправку, которая равна 3 ч.

Смотрите также архив погоды в соседних городах и на ближайших метеорологических станциях:

Погода в Ахты (Дагестан, Россия) (40 км)
Погода в Губе (Азербайджан) (45 км)
Погода в Дербенте (Дагестан, Россия) (46 км)
Погода в Габале (Азербайджан) (80 км)
Погода в Сергокале (Дагестан, Россия) (95 км)
Погода в Шеках (Азербайджан) (96 км)
Погода в Изберге (Дагестан, Россия) (98 км)
Погода в Кумухе (Дагестан, Россия) (99 км)
Погода в Геокчае (Азербайджан) (118 км)
Погода в Куппе (Дагестан, Россия) (121 км)

Пояснения к столбцам:

Ветер - указаны скорость ветра в м/с - средняя за 10 мин, порывы в срок и между сроками (в фигурных скобках) и направление, откуда дует ветер: С - северный, СВ - северо-восточный, В - восточный, ЮВ - юго-восточный, Ю - южный, ЮЗ - юго-западный, З - западный, СЗ - северо-западный.
Видимость - горизонтальная дальность видимости в метрах или километрах. При видимости от 1 до 10 км при отсутствии осадков обычно наблюдается дымка, при ухудшении видимости до 1 км и менее - туман. В сухую погоду видимость может ухудшаться дымом, пылью или мглою.
Явления - указаны атмосферные явления, наблюдавшиеся в срок или в последний час перед сроком; фигурными скобками обозначены явления, наблюдавшиеся между сроками (за 1-3 часа до срока); квадратными скобками обозначены град или гололедные отложения с указанием их диаметра в мм.
Облачность - указаны через наклонную черту общая и нижняя облачность в баллах и высота нижней границы облаков в метрах; квадратными скобками обозначены формы облаков: Ci - перистые, Cs - перисто-слоистые, Cc - перисто-кучевые, Ac - высококучевые, As - высокослоистые, Sc - слоисто-кучевые, Ns - слоисто-дождевые, Cu - кучевые, Cb - кучево-дождевые. Подробнее классификацию облаков см. в Атласе облаков (PDF).
T - Температура воздуха - температура, измеренная на высоте 2 м над землей.
Td - Температура точки росы - температура, при понижении до которой содержащийся в воздухе водяной пар достигнет насыщения.
f - Относительная влажность воздуха - влажноcть воздуха, измеренная на высоте 2 м над землей.
Te - Эффективная температура - температура, которую ощущает одетый по сезону человек в тени. Характеристика душности погоды. При расчете учитывается влияние влажности воздуха и скорости ветра на теплоощущения человека.
Tes - Эффективная температура на солнце - температура, которую ощущает человек, с поправкой на солнечный нагрев. Характеристика знойности погоды. Зависит от высоты солнца над горизонтом, облачности и скорости ветра. Ночью, в пасмурную погоду, а также при ветре 12 м/с и более поправка равна нулю.
P - Атмосферное давление - приведенное к уровню моря атмосферное давление.
Po - Атмосферное давление - измеренное на уровне метеостанции атмосферное давление.
Tmin - Минимальная температура - минимум температуры воздуха на высоте 2 м над землей.
Tmax - Максимальная температура - максимум температуры воздуха на высоте 2 м над землей.
R - Количество осадков - Количество выпавших осадков за период времени, мм. При наведении курсора мыши на число - период времени, за который выпало указанное количество осадков.
R24 - Количество осадков - Количество выпавших осадков за 24 часа, мм.
S - Снежный покров - Высота снежного покрова, см. При наведении курсора мыши на число - состояние снежного покрова и степень покрытия местности в баллах.